AirNav   Everest Fuels
 
 938 users online  

2MI2 St Mary Mercy Hospital Heliport
Livonia, Michigan, USA

GOING TO LIVONIA?


FAA INFORMATION EFFECTIVE 18 JUNE 2020

Location

FAA Identifier: 2MI2
Lat/Long: 42-23-32.0000N 083-24-18.0000W
42-23.533333N 083-24.300000W
42.3922222,-83.4050000
(estimated)
Elevation: 674.2 ft. / 205 m (estimated)
Variation: 07W (2000)
Time zone: UTC -4 (UTC -5 during Standard Time)
Zip code: 48152

Heliport Operations

Heliport use: Private use, MEDICAL.
Activation date: 10/1994
Control tower: no
ARTCC: CLEVELAND CENTER
FSS: LANSING FLIGHT SERVICE STATION
NOTAMs facility: FDC (NOTAM-D service not available)
Attendance: CONTINUOUS
Wind indicator: lighted
Segmented circle: no
Lights: PERIMETER LIGHTS ARE ACTIVATED BY CALLING THE SECURITY OFFICE AND SECURITY TURNING THEM ON.

Heliport Communications

WX ASOS at YIP (11 nm SW): PHONE 734-961-6843
WX ASOS at DTW (11 nm S): 133.675 (734-955-5015)
WX AWOS-3 at VLL (14 nm NE): 119.475 (248-288-4649)
WX ASOS at PTK (16 nm N): 125.025 (248-886-8551)
WX ASOS at DET (18 nm E): PHONE 313-371-9696
WX ASOS at ARB (18 nm SW): 134.55 (734-668-7173)

Nearby radio navigation aids

VOR radial/distance  VOR name  Freq  Var
SVMr100/8.4SALEM VORTAC114.3003W
DXOr357/10.9DETROIT VOR/DME113.4006W
CRLr009/20.8CARLETON VOR/DME115.7003W
FNTr162/37.6FLINT VORTAC116.9006W

 
NDB name  Hdg/Dist  Freq  Var  ID
GROSSE ILE334/20.741907WRYS .-. -.-- ...
TECUMSEH051/30.323906WTCU - -.-. ..-

Heliport Services

Runway Information

Helipad H1

Dimensions: 60 x 60 ft. / 18 x 18 m
Surface: concrete
Runway edge lights: PERI
Latitude: 42-23.533333N
Longitude: 083-24.300000W
Elevation: 674.2 ft.
Traffic pattern: leftleft

Heliport Ownership and Management from official FAA records

Ownership: Privately-owned
Owner: ST. MARY MERCY HOSPITAL
36475 FIVE MILE RD
LIVONIA, MI 48154
Phone (734) 655-2642
EXT 2457.
Manager: JACK SEMAN JR
36475 FIVE MILE RD
LIVONIA, MI 48154
Phone (734) 655-2642
DIRECTOR OF SECURITY.

Additional Remarks

APCH / DEP 090
FOR CD CTC DETROIT APCH AT 800-499-8181.

Instrument Procedures

There are no published instrument procedures at 2MI2.

Some nearby airports with instrument procedures:

1D2 - Canton-Plymouth-Mettetal Airport (4 nm SW)
KYIP - Willow Run Airport (11 nm SW)
KDTW - Detroit Metropolitan Wayne County Airport (11 nm S)
Y47 - Oakland Southwest Airport (12 nm NW)
KVLL - Oakland/Troy Airport (14 nm NE)
KPTK - Oakland County International Airport (16 nm N)
KDET - Coleman A Young Municipal Airport (18 nm E)
KARB - Ann Arbor Municipal Airport (18 nm SW)
 
Loc | Ops | Rwys | IFR | FBO | Links
Com | Nav | Svcs | Stats | Notes
Area around 2MI2 (St Mary Mercy Hospital Heliport)
 
Road maps at: MapQuest Bing Google
 
Aerial photo
No photo
 
Sectional chart

 
Airport distance calculator
Flying to St Mary Mercy Hospital Heliport? Find the distance to fly.

From to 2MI2

Sunrise and sunset
Times for 02-Jul-2020
 Local
(UTC-4)
 Zulu
(UTC)
Morning civil twilight05:2809:28
Sunrise06:0210:02
Sunset21:1301:13
Evening civil twilight21:4801:48

Current date and time
Zulu (UTC)  02-Jul-2020 23:49:14
Local (UTC-4)  02-Jul-2020 19:49:14
 
METAR
KDTW 
10nm S 
022253Z 15007KT 10SM FEW075 30/17 A2999 RMK AO2 SLP150 T03000172
KYIP 
11nm SW 
022253Z 30009KT 10SM CLR 33/15 A2999 RMK AO2 SLP147 T03280150
KVLL 
14nm NE 
022335Z AUTO 00000KT 10SM SCT080 32/15 A3000 RMK AO2 T03160152
KPTK 
16nm N 
022253Z 31006KT 10SM CLR 32/12 A2999 RMK AO2 SLP147 T03170117 $
KDET 
17nm E 
022253Z 17005KT 10SM CLR 31/18 A2998 RMK AO2 SLP149 T03060178
KARB 
18nm SW 
734-668-7173
022253Z AUTO 35007KT 10SM CLR 30/15 A2999 RMK AO2 SLP151 T03000150
TAF
KDTW 
10nm S 
021729Z 0218/0324 34004KT P6SM SCT060 SCT250 FM021900 16006KT P6SM FEW080 SCT250 FM030200 28004KT P6SM SCT250
KYIP 
11nm SW 
021729Z 0218/0318 33005KT P6SM SCT060 SCT250 FM021900 16006KT P6SM FEW080 SCT250 FM030200 28004KT P6SM SCT250
KPTK 
16nm N 
021729Z 0218/0318 31005KT P6SM FEW050 SCT250 FM021900 32004KT P6SM FEW070 SCT250
KDET 
17nm E 
021729Z 0218/0318 14006KT P6SM FEW050 SCT250 FM021900 10006KT P6SM FEW080 SCT250 FM030200 28004KT P6SM SCT250
NOTAMs
Click for the latest NOTAMs
NOTAMs are issued by the DoD/FAA and will open in a separate window not controlled by AirNav.

 

 
 

Would you like to see your business listed on this page?

 If your business provides an interesting product or service to pilots, flight crews, aircraft, or users of the St Mary Mercy Hospital Heliport, you should consider listing it here.  To start the listing process, click on the button below
 
Add a business
 

Other Pages about St Mary Mercy Hospital Heliport

Update a link
 
Copyright © AirNav, LLC. All rights reserved. Privacy Policy  Contact